This is the latest recevied weather packets stored in our database for station/object N3LF. If no packets are shown the sender has not sent any weather packets the latest 10 day(s).
| Time | Temp. | Humidity | Pressure | Rain* | Wind** | Luminosity | Snow |
|---|---|---|---|---|---|---|---|
| 1788448449 | 32.22° C | 73% | 1020.1 hPa | 0 mm | - | 479 W/m² | - |
| 1788448144 | 33.33° C | 69% | 1020 hPa | 0 mm | - | 467 W/m² | - |
| 1788447838 | 33.33° C | 68% | 1020.1 hPa | 0 mm | - | 456 W/m² | - |
| 1788447533 | 32.78° C | 72% | 1020.2 hPa | 0 mm | - | 441 W/m² | - |
| 1788447229 | 32.78° C | 72% | 1020 hPa | 0 mm | - | 431 W/m² | - |
| 1788446928 | 31.67° C | 75% | 1020.1 hPa | 0 mm | - | 420 W/m² | - |
| 1788446623 | 31.67° C | 74% | 1020.1 hPa | 0 mm | - | 407 W/m² | - |
| 1788446318 | 31.11° C | 77% | 1020.1 hPa | 0 mm | - | 393 W/m² | - |
| 1788446015 | 31.11° C | 76% | 1019.9 hPa | 0 mm | - | 381 W/m² | - |
| 1788445711 | 31.67° C | 77% | 1020.2 hPa | 0 mm | - | 369 W/m² | - |
| 1788445407 | 31.11° C | 78% | 1020.1 hPa | 0 mm | - | 356 W/m² | - |
| 1788445102 | 30.56° C | 80% | 1020 hPa | 0 mm | - | 343 W/m² | - |
| 1788444798 | 30.56° C | 80% | 1020 hPa | 0 mm | - | 329 W/m² | - |
| 1788444498 | 28.89° C | 84% | 1020.1 hPa | 0 mm | - | 317 W/m² | - |
| 1788444193 | 29.44° C | 84% | 1020.3 hPa | 0 mm | - | 303 W/m² | - |
| 1788443889 | 29.44° C | 84% | 1020.1 hPa | 0 mm | - | 289 W/m² | - |
| 1788443584 | 29.44° C | 84% | 1020.3 hPa | 0 mm | - | 273 W/m² | - |
| 1788443283 | 28.33° C | 87% | 1020.2 hPa | 0 mm | - | 263 W/m² | - |
| 1788442979 | 27.78° C | 89% | 1020.3 hPa | 0 mm | - | 248 W/m² | - |
| 1788442676 | 27.78° C | 89% | 1020.3 hPa | 0 mm | - | 245 W/m² | - |
| 1788442372 | 28.89° C | 85% | 1020.5 hPa | 0 mm | - | 230 W/m² | - |
| 1788442072 | 27.78° C | 89% | 1020.3 hPa | 0 mm | - | 216 W/m² | - |
| 1788441767 | 27.22° C | 92% | 1020.4 hPa | 0 mm | - | 192 W/m² | - |
| 1788441462 | 26.67° C | 93% | 1020.5 hPa | 0 mm | - | 152 W/m² | - |
| 1788441162 | 26.11° C | 95% | 1020.5 hPa | 0 mm | - | 128 W/m² | - |
* Rain latest hour (hover to see other rain measurements)
** Current wind speed in m/s (hover to see current wind gust speed)